Other Surface Observations
Issued by NWS

Home | Current Version | Previous Version | Text Only | Print | Product List | Glossary On
Versions: 1 2 3 4 5 6 7 8 9 10 11 12 13 14 15 16 17 18 19 20 21 22 23 24 25 26 27 28 29 30 31 32 33 34 35 36 37 38 39 40 41 42 43 44 45 46 47 48 49 50
000
SXUS52 KTAE 241305
OSOTAE
OSOTAE
North Florida/South Alabama/Southwest Georgia Weather Roundup
National Weather Service Tallahassee Florida
900 AM EDT SUN JUL 24 2016

Note: "fair" indicates few or no clouds below 12,000 feet with no
significant weather and/or obstructions to visibility.

!FLZ017-115-028-034-025-241400
...North Florida...

CITY           SKY/WX    TMP DP  RH WIND       PRES   REMARKS
TALLAHASSEE    MOSUNNY   82  76  81 E3        30.04
APALACHICOLA   MOSUNNY   84  81  90 NE5       30.02R HX  99
PERRY          MOSUNNY   82  76  79 CALM      30.06R HX  90
CROSS CITY       N/A     83  75  77 S3        30.04R HX  90
JACKSONVILLE   MOSUNNY   82  72  71 VRB3      30.06R
$$

!FLZ112-006-005-002-011-241400
...Florida Panhandle...

CITY           SKY/WX    TMP DP  RH WIND       PRES   REMARKS
MARIANNA       CLOUDY    77  76  96 E3        30.03R
BONIFAY        FAIR      84  74  71 CALM      30.04S HX  91
PANAMA CITY NW FAIR      82  75  79 NE6       30.01R
TYNDALL AFB    MOSUNNY   80  76  85 E5        30.02R
TYND DRONE APT NOT AVBL
DE FUNIAK SPR  FAIR      79  75  88 E5        30.04R
EGLIN AFB      PTSUNNY   81  76  84 NE5       30.01R
DESTIN         CLOUDY    85  81  88 NE5       30.01R HX 100
HURLBURT       SUNNY     81  76  83 NE5       30.00R
CRESTVIEW      MOSUNNY   79  74  84 VRB3      30.04R
PENSACOLA      MOSUNNY   82  76  81 NE5       30.01R
$$

!ALZ063-066-241400
...South Alabama...

CITY           SKY/WX    TMP DP  RH WIND       PRES   REMARKS
DOTHAN         CLOUDY    77  74  90 CALM      30.08R
OZARK CAIRNS   MOSUNNY   76  75  98 CALM      30.04S
FT RUCKER HELI MOSUNNY   77  73  87 CALM      30.03S
RUCKER HELI 3  FAIR      76  74  91 CALM      30.06R
RUCKER HELI 2  FAIR      78  73  84 CALM      30.04S
FLORALA APT    MOSUNNY   79  74  84 CALM      30.06R
ANDALUSIA      MOSUNNY   83  75  77 CALM      30.04R HX  90
TROY           SUNNY     79  75  87 CALM      30.06R
EUFALA         FAIR      84  75  74 CALM      30.04R HX  92
MOBILE         CLOUDY    81  77  88 NE3       30.01R
$$

!GAZ120>161-241400
...Southwest and South Central Georgia...

CITY           SKY/WX    TMP DP  RH WIND       PRES   REMARKS
THOMASVILLE      N/A     82  81  94 CALM      30.07R HX  95
BAINBRIDGE     PTSUNNY   81  77  89 CALM      30.05S
MOODY AFB      SUNNY     82  73  75 SW5       30.06R
VALDOSTA       SUNNY     82  76  81 S5        30.06R
MOULTRIE       MOSUNNY   82  73  74 CALM      30.07R
BLAKELY        CLOUDY    81  75  83 CALM      30.06R
ALBANY         MOSUNNY   82  74  76 S3        30.08R
TIFTON         FAIR      82  74  78 CALM      30.06R
FITZGERALD     FAIR      86  78  76 SW3       30.08R HX  99
CORDELE        FAIR      84  76  77 W5        30.07R HX  92
AMERICUS       FAIR      81  73  78 SW5       30.08R
HOMERVILLE     FAIR      81  75  83 CALM      30.07R
$$

!GMZ750-755-770-775-241400
...Coastal and Buoy Obs...

STATION/POSITION TIME  TEMP    WIND        PRES    VSBY  WAVE
                       AIR SEA DIR/SP/G                  HT/PER
                 (UTC) (F)     (DEG/KT/KT) (MB)    (MI)  (FT/S)
KEATON BEACH     1200   79      80/  6/  7 1016.5R
CEDAR KEY        1200   84     140/  4/  5 1017.1R
C TOWER          1200   83     160/  7/  7 1016.5R
APALACHICOLA BUO 1250   82 87  230/  4/  8 1016.8R         1/ 4
PANAMA CITY BUOY 1150   84 88  190/  2/  4 1015.7          1
MOBILE BUOY      1200   84 87  210/  4/  6 1014.8R
ORANGE BCH AL BU 1250   85 89  180/  4/  6 1015.9R         1/ 4
$$




USA.gov is the U.S. government's official web portal to all federal, state and local government web resources and services.